TimeEDT,TemperatureF,Dew PointF,Humidity,Sea Level PressureIn,VisibilityMPH,Wind Direction,Wind SpeedMPH,Gust SpeedMPH,PrecipitationIn,Events,Conditions,WindDirDegrees,DateUTC
12:15 AM,55.4,55.4,100,29.86,1.2,Calm,Calm,-,N/A,,Mostly Cloudy,0,2013-09-22 04:15:00
12:35 AM,55.4,55.4,100,29.86,2.5,WNW,3.5,-,N/A,,Scattered Clouds,300,2013-09-22 04:35:00
12:55 AM,53.6,53.6,100,29.86,0.8,Calm,Calm,-,N/A,,Mist,0,2013-09-22 04:55:00
1:15 AM,53.6,53.6,100,29.86,1.0,Calm,Calm,-,N/A,,Mostly Cloudy,0,2013-09-22 05:15:00
1:35 AM,53.6,53.6,100,29.86,1.0,Calm,Calm,-,N/A,,Mist,0,2013-09-22 05:35:00
1:55 AM,53.6,53.6,100,29.86,0.2,Calm,Calm,-,N/A,Fog,Fog,0,2013-09-22 05:55:00
2:15 AM,51.8,51.8,100,29.86,0.2,Calm,Calm,-,N/A,Fog,Fog,0,2013-09-22 06:15:00
2:35 AM,51.8,51.8,100,29.86,0.2,Calm,Calm,-,N/A,Fog,Fog,0,2013-09-22 06:35:00
2:55 AM,51.8,51.8,100,29.86,0.2,Calm,Calm,-,N/A,Fog,Fog,0,2013-09-22 06:55:00
3:15 AM,51.8,51.8,100,29.86,0.2,Calm,Calm,-,N/A,Fog,Fog,0,2013-09-22 07:15:00
3:35 AM,51.8,51.8,100,29.87,0.2,Calm,Calm,-,N/A,Fog,Fog,0,2013-09-22 07:35:00
3:55 AM,51.8,51.8,100,29.87,0.2,Calm,Calm,-,N/A,Fog,Fog,0,2013-09-22 07:55:00
4:15 AM,50.0,50.0,100,29.87,1.5,Calm,Calm,-,0.01,,Mostly Cloudy,0,2013-09-22 08:15:00
4:35 AM,48.2,48.2,100,29.88,0.5,Calm,Calm,-,0.01,Fog,Fog,0,2013-09-22 08:35:00
4:55 AM,48.2,48.2,100,29.88,0.5,Calm,Calm,-,0.01,Fog,Fog,0,2013-09-22 08:55:00
5:15 AM,48.2,48.2,100,29.88,1.2,Calm,Calm,-,N/A,,Mostly Cloudy,0,2013-09-22 09:15:00
5:35 AM,48.2,48.2,100,29.89,0.2,Calm,Calm,-,N/A,Fog,Fog,0,2013-09-22 09:35:00
5:55 AM,48.2,48.2,100,29.90,0.5,Calm,Calm,-,N/A,Fog,Fog,0,2013-09-22 09:55:00
6:15 AM,48.2,48.2,100,29.90,0.8,Calm,Calm,-,N/A,,Overcast,0,2013-09-22 10:15:00
6:35 AM,46.4,46.4,100,29.90,0.5,Calm,Calm,-,N/A,Fog,Fog,0,2013-09-22 10:35:00
6:55 AM,46.4,46.4,100,29.90,0.8,Calm,Calm,-,N/A,,Overcast,0,2013-09-22 10:55:00
7:15 AM,48.2,48.2,100,29.91,1.8,NNW,3.5,-,N/A,,Overcast,330,2013-09-22 11:15:00
7:35 AM,50.0,50.0,100,29.91,4.0,Calm,Calm,-,N/A,,Overcast,0,2013-09-22 11:35:00
7:55 AM,51.8,51.8,100,29.92,7.0,Calm,Calm,-,N/A,,Overcast,0,2013-09-22 11:55:00
8:15 AM,53.6,53.6,100,29.92,7.0,Calm,Calm,-,N/A,,Overcast,0,2013-09-22 12:15:00
8:35 AM,55.4,55.4,100,29.93,10.0,Calm,Calm,-,N/A,,Overcast,0,2013-09-22 12:35:00
8:55 AM,55.4,55.4,100,29.93,10.0,Calm,Calm,-,N/A,,Overcast,0,2013-09-22 12:55:00
9:15 AM,55.4,55.4,100,29.94,10.0,Calm,Calm,-,N/A,,Overcast,0,2013-09-22 13:15:00
9:35 AM,57.2,57.2,100,29.94,10.0,Calm,Calm,-,N/A,,Overcast,0,2013-09-22 13:35:00
9:55 AM,57.2,57.2,100,29.95,10.0,North,3.5,-,N/A,,Mostly Cloudy,350,2013-09-22 13:55:00
10:15 AM,57.2,57.2,100,29.95,10.0,NNW,4.6,-,N/A,,Scattered Clouds,330,2013-09-22 14:15:00
10:35 AM,59.0,59.0,100,29.95,10.0,Calm,Calm,-,N/A,,Overcast,0,2013-09-22 14:35:00
10:55 AM,60.8,60.8,100,29.95,10.0,North,4.6,-,N/A,,Scattered Clouds,350,2013-09-22 14:55:00
11:15 AM,60.8,60.8,100,29.94,10.0,North,5.8,-,N/A,,Mostly Cloudy,360,2013-09-22 15:15:00
11:35 AM,62.6,59.0,88,29.94,10.0,NW,3.5,-,N/A,,Overcast,320,2013-09-22 15:35:00
11:55 AM,64.4,59.0,83,29.94,10.0,WNW,6.9,-,N/A,,Mostly Cloudy,290,2013-09-22 15:55:00
12:15 PM,62.6,57.2,82,29.94,10.0,Calm,Calm,-,N/A,,Mostly Cloudy,0,2013-09-22 16:15:00
12:35 PM,64.4,57.2,77,29.95,10.0,WNW,4.6,-,N/A,,Overcast,290,2013-09-22 16:35:00
12:55 PM,66.2,57.2,73,29.94,10.0,Calm,Calm,-,N/A,,Mostly Cloudy,0,2013-09-22 16:55:00
1:15 PM,66.2,57.2,73,29.94,10.0,NW,4.6,-,N/A,,Mostly Cloudy,310,2013-09-22 17:15:00
1:35 PM,68.0,55.4,64,29.94,10.0,WNW,8.1,-,N/A,,Overcast,290,2013-09-22 17:35:00
1:55 PM,66.2,55.4,68,29.93,10.0,NW,9.2,-,N/A,,Mostly Cloudy,320,2013-09-22 17:55:00
2:15 PM,69.8,55.4,60,29.93,10.0,NNW,9.2,-,N/A,,Mostly Cloudy,330,2013-09-22 18:15:00
2:35 PM,69.8,55.4,60,29.92,10.0,NNW,8.1,-,N/A,,Mostly Cloudy,330,2013-09-22 18:35:00
2:55 PM,68.0,55.4,64,29.92,10.0,NW,4.6,-,N/A,,Mostly Cloudy,310,2013-09-22 18:55:00
3:15 PM,69.8,55.4,60,29.91,10.0,WNW,6.9,-,N/A,,Mostly Cloudy,300,2013-09-22 19:15:00
3:35 PM,69.8,55.4,60,29.91,10.0,NW,6.9,-,N/A,,Overcast,320,2013-09-22 19:35:00
3:55 PM,69.8,55.4,60,29.91,10.0,NW,6.9,-,N/A,,Scattered Clouds,320,2013-09-22 19:55:00
4:15 PM,69.8,55.4,60,29.91,10.0,NW,5.8,-,N/A,,Mostly Cloudy,310,2013-09-22 20:15:00
4:35 PM,66.2,53.6,64,29.91,10.0,NW,5.8,-,N/A,,Scattered Clouds,320,2013-09-22 20:35:00
4:55 PM,66.2,55.4,68,29.92,10.0,NW,8.1,-,N/A,,Mostly Cloudy,320,2013-09-22 20:55:00
5:15 PM,68.0,55.4,64,29.92,10.0,NNW,6.9,-,N/A,,Scattered Clouds,330,2013-09-22 21:15:00
5:35 PM,66.2,55.4,68,29.92,10.0,NNW,4.6,-,N/A,,Scattered Clouds,340,2013-09-22 21:35:00
5:55 PM,66.2,53.6,64,29.93,10.0,NNW,10.4,-,N/A,,Scattered Clouds,330,2013-09-22 21:55:00
6:15 PM,64.4,53.6,68,29.93,10.0,NNW,9.2,-,N/A,,Scattered Clouds,330,2013-09-22 22:15:00
6:35 PM,64.4,53.6,68,29.94,10.0,NW,9.2,-,N/A,,Clear,320,2013-09-22 22:35:00
6:55 PM,62.6,53.6,72,29.94,10.0,NW,6.9,-,N/A,,Clear,320,2013-09-22 22:55:00
7:15 PM,62.6,53.6,72,29.94,10.0,North,5.8,-,N/A,,Clear,350,2013-09-22 23:15:00
7:35 PM,59.0,53.6,82,29.95,10.0,North,3.5,-,N/A,,Clear,350,2013-09-22 23:35:00
7:55 PM,57.2,53.6,88,29.95,10.0,NNW,3.5,-,N/A,,Clear,340,2013-09-22 23:55:00
8:15 PM,57.2,53.6,88,29.96,10.0,North,5.8,-,N/A,,Clear,350,2013-09-23 00:15:00
8:35 PM,55.4,53.6,94,29.97,10.0,Calm,Calm,-,N/A,,Clear,0,2013-09-23 00:35:00
8:55 PM,53.6,53.6,100,29.98,10.0,North,4.6,-,N/A,,Clear,350,2013-09-23 00:55:00
9:15 PM,55.4,51.8,88,29.99,10.0,North,3.5,-,N/A,,Clear,350,2013-09-23 01:15:00
9:35 PM,55.4,53.6,94,29.99,10.0,NW,5.8,-,N/A,,Clear,320,2013-09-23 01:35:00
9:55 PM,55.4,51.8,88,30.00,10.0,NW,4.6,-,N/A,,Clear,310,2013-09-23 01:55:00
10:15 PM,55.4,51.8,88,30.01,10.0,NNW,5.8,-,N/A,,Clear,330,2013-09-23 02:15:00
10:35 PM,53.6,51.8,94,30.02,10.0,West,4.6,-,N/A,,Clear,280,2013-09-23 02:35:00
10:55 PM,51.8,51.8,100,30.02,10.0,Calm,Calm,-,N/A,,Clear,0,2013-09-23 02:55:00
11:15 PM,50.0,50.0,100,30.02,10.0,Calm,Calm,-,N/A,,Clear,0,2013-09-23 03:15:00
11:35 PM,50.0,50.0,100,30.02,10.0,WNW,3.5,-,N/A,,Clear,300,2013-09-23 03:35:00
11:55 PM,51.8,51.8,100,30.02,10.0,WNW,3.5,-,N/A,,Clear,300,2013-09-23 03:55:00